GW5346 Weather Reports


time (UTC)temp
F
wind
direction
speed
knots
gust
knots
rain 1hr
in
rain 24hr
in
rain mn
in
humidity
%
barometer
mb
20260505113058 39 5 8.7 10.4 0.00 0.00 0.00 58 1018.6
20260505111557 40 5 7.0 9.6 0.00 0.00 0.00 57 1018.7
20260505101545 41 330 6.1 10.4 0.00 0.00 0.00 55 1018.4
20260505100052 41 302 4.3 9.6 0.00 0.00 0.00 55 1018.3
20260505094553 41 298 7.8 10.4 0.00 0.00 0.00 54 1018.1
20260505093052 40 306 7.0 8.7 0.00 0.00 0.00 53 1017.9
20260505091556 40 268 3.5 7.0 0.00 0.00 0.00 52 1017.8
20260505090056 39 281 2.6 5.2 0.00 0.00 0.00 52 1017.8
20260505084551 39 277 1.7 5.2 0.00 0.00 0.00 51 1017.8
20260505083054 39 281 1.7 3.5 0.00 0.00 0.00 51 1017.8
20260505081556 39 282 1.7 3.5 0.00 0.00 0.00 51 1017.8
20260505080050 39 290 0.9 3.5 0.00 0.00 0.00 51 1017.7
20260505074606 39 352 0.9 2.6 0.00 0.00 0.00 51 1017.9
20260505073051 39 352 0.9 1.7 0.00 0.00 0.00 51 1018.2
20260505071551 40 352 0.9 2.6 0.00 0.00 0.00 49 1018.0
20260505070046 40 352 1.7 4.3 0.00 0.00 0.00 50 1018.1
20260505064545 40 73 2.6 3.5 0.00 0.00 0.00 49 1018.1
20260505063056 40 77 0.9 1.7 0.00 0.00 0.00 50 1017.8
20260505061615 40 77 0.9 2.6 0.00 0.00 0.00 47 1017.6
20260505060053 41 77 1.7 4.3 0.00 0.00 0.00 47 1017.3
20260505054602 41 88 2.6 5.2 0.00 0.00 0.00 47 1017.3
20260505053045 41 99 2.6 6.1 0.00 0.00 0.00 47 1017.3
20260505051610 41 139 3.5 4.3 0.00 0.00 0.00 47 1017.1
20260505041551 41 61 4.3 7.0 0.00 0.00 0.00 45 1017.2
20260505040050 41 65 3.5 7.0 0.00 0.00 0.00 42 1017.1
20260505034549 43 30 7.0 10.4 0.00 0.00 0.00 42 1016.9
20260505033053 44 30 8.7 12.2 0.00 0.00 0.00 41 1016.6
20260505031546 45 28 11.3 16.5 0.00 0.00 0.00 39 1016.4
20260505030056 46 21 9.6 15.6 0.00 0.00 0.00 34 1016.1
20260505024606 47 15 9.6 13.9 0.00 0.00 0.00 31 1015.8
20260505023051 49 9 12.2 15.6 0.00 0.00 0.00 28 1015.6
20260505021608 50 5 12.2 16.5 0.00 0.00 0.00 26 1015.5
20260505020051 52 5 13.0 19.1 0.00 0.00 0.00 24 1015.2
20260505014554 53 5 13.0 20.9 0.00 0.00 0.00 22 1015.1
20260505013051 54 348 14.8 20.9 0.00 0.00 0.00 22 1015.0
20260505011556 54 317 12.2 20.9 0.00 0.00 0.00 22 1015.0
20260505010051 55 331 13.9 20.0 0.00 0.00 0.00 22 1015.0
20260505004550 54 334 13.0 20.9 0.00 0.00 0.00 23 1015.2
20260505003047 55 325 15.6 22.6 0.00 0.00 0.00 22 1015.1
20260505001548 56 323 17.4 22.6 0.00 0.00 0.00 23 1015.1
20260505000049 55 331 13.9 24.3 0.00 0.00 0.00 23 1015.1
20260504234550 56 5 15.6 24.3 0.00 0.00 0.00 24 1015.1
20260504233101 55 299 11.3 20.9 0.00 0.00 0.00 26 1015.2
20260504231605 55 330 18.2 24.3 0.00 0.00 0.00 28 1015.2
20260504230058 55 340 18.2 26.9 0.00 0.00 0.00 28 1015.3
20260504224555 55 327 13.9 20.0 0.00 0.00 0.00 30 1015.3
20260504223103 54 344 13.9 19.1 0.00 0.00 0.00 30 1015.2
20260504221606 55 15 11.3 17.4 0.00 0.00 0.00 31 1015.3
20260504220135 55 306 17.4 26.9 0.00 0.00 0.00 31 1015.5
20260504214555 55 331 13.9 28.7 0.00 0.00 0.00 31 1015.4
20260504213123 57 331 14.8 22.6 0.00 0.00 0.00 30 1015.4
20260504211551 56 344 14.8 28.7 0.00 0.00 0.00 30 1015.4
20260504210047 55 323 17.4 29.5 0.00 0.00 0.00 30 1015.3
20260504204559 55 340 14.8 24.3 0.00 0.00 0.00 29 1015.6
20260504203052 55 323 13.0 27.8 0.00 0.00 0.00 30 1015.3
20260504201551 55 320 10.4 26.1 0.00 0.00 0.00 30 1015.4
20260504194552 56 323 15.6 26.9 0.00 0.00 0.00 30 1015.3
20260504193044 56 317 11.3 22.6 0.00 0.00 0.00 31 1015.5
20260504191550 55 298 11.3 22.6 0.00 0.00 0.00 32 1015.4
20260504190048 56 360 13.0 25.2 0.00 0.00 0.00 31 1015.4
20260504184550 56 326 11.3 28.7 0.00 0.00 0.00 33 1015.5
20260504183054 56 326 15.6 26.9 0.00 0.00 0.00 31 1015.6
20260504181553 56 336 10.4 26.9 0.00 0.00 0.00 33 1015.6
20260504180053 55 340 17.4 23.5 0.00 0.00 0.00 35 1015.6
20260504174549 54 303 11.3 19.1 0.00 0.00 0.00 36 1015.6
20260504173046 55 325 10.4 18.2 0.00 0.00 0.00 36 1015.6
20260504171556 55 300 9.6 16.5 0.00 0.00 0.00 40 1015.6